Location: Unspecified
(0.0000°N, 0.0000°E)
Time: 07:52:15
(UTC+00:00)

deb NOAA 5 - Pass Details

Date: 16 February 2026
Orbit: 747 x 1048 km, 102.9° (Epoch: 14 March)

Event Time Altitude Azimuth Distance (km) Brightness Sun altitude
Rises 19:22:05 0° 341° (NNW) 3,679 ? -16.6°
Reaches altitude 10° 19:26:08 10° 315° (NW) 2,668 ? -17.6°
Maximum altitude 19:28:39 13° 290° (WNW) 2,417 ? -18.2°
Drops below altitude 10° 19:31:07 10° 264° (W) 2,581 ? -18.8°
Sets 19:34:56 0° 237° (WSW) 3,450 ? -19.8°
